Location: Batang Balui
(2.7000°N, 113.7833°E)
Time: 01:29:49
(UTC+00:00)

FO-29 - Pass Details

Date: 05 April 2023
Orbit: 799 x 1322 km, 98.5° (Epoch: 29 May)

Event Time Altitude Azimuth Distance (km) Brightness Sun altitude
Rises 21:44:47 0° 354° (N) 3,884 12.7 -10.3°
Reaches altitude 10° 21:47:45 10° 344° (NNW) 2,845 11.8 -9.6°
Maximum altitude 21:53:09 30° 285° (WNW) 1,647 10.2 -8.2°
Drops below altitude 10° 21:58:05 10° 226° (SW) 2,566 11.2 -7.0°
Sets 22:00:39 0° 215° (SW) 3,447 12.0 -6.4°
